Location: Arnos
(43.4500°N, 0.5333°W)
Time: 05:42:45
(UTC+00:00)

Daily predictions for brighter satellites

Satellite Brightness Start Highest point End
(mag) Time Altitude Azimuth Time Altitude Azimuth Time Altitude Azimuth
CZ-2D R/B 4.5 01:48:58 10° NNE 01:50:21 18° NNE 01:50:21 18° NNE
Resurs 1-4 Rocket 4.4 02:00:33 10° N 02:01:48 18° N 02:01:48 18° N
ATLAS 5 CENTAUR R/B 4.5 02:40:34 10° N 02:40:34 10° N 02:40:36 10° N
IDEFIX/ARIANE 42P 4.3 02:33:35 10° N 02:35:50 26° N 02:35:50 26° N
Cosmos 1821 Rocket 4.5 02:45:36 53° N 02:45:36 53° N 02:50:16 10° N
CZ-2C R/B 4.2 02:40:58 10° NE 02:45:06 25° E 02:45:48 24° ESE
FENGYUN 3A 4.3 02:50:03 10° NNE 02:55:11 49° E 02:55:11 49° E
ADEOS II 3.8 02:55:56 10° N 02:58:10 24° NNW 02:58:10 24° NNW
Cosmos 1934 Rocket 4.1 03:08:35 60° SSE 03:09:43 74° E 03:16:04 10° NNE
IRS-1D 4.1 03:06:24 10° N 03:10:31 54° N 03:10:31 54° N
CBERS-1 4.2 03:08:27 10° NNE 03:13:28 66° E 03:13:28 66° E
CZ-2C R/B 4.2 03:18:00 10° SE 03:22:37 34° ENE 03:27:20 10° N
PAYLOAD A 4.0 03:28:47 10° NNE 03:33:33 68° ESE 03:34:35 52° SSE
CZ-2D R/B 4.4 03:30:57 10° NNW 03:31:39 12° NW 03:31:39 12° NW
Cosmos 407 Rocket 4.2 03:29:37 10° NNW 03:34:51 55° ENE 03:40:04 10° SE
Tiangong 0.5 03:38:03 17° ESE 03:38:03 17° ESE 03:38:53 10° ESE
Atlas Centaur 2 4.0 03:36:13 26° S 03:37:35 27° S 03:43:27 10° ESE
BREEZE-M DEB (TANK) 3.5 03:41:11 30° NNE 03:41:11 30° NNE 03:44:40 10° E
X-37B 3.0 03:43:15 20° E 03:43:15 20° E 03:44:24 10° E
Cosmos 1656 3.7 03:37:31 10° NNW 03:43:16 84° ENE 03:48:57 10° SSE
Meteor 1-14 Rocket 4.2 03:37:26 10° N 03:43:25 88° E 03:49:14 10° S
ALOS 2.1 03:39:33 10° N 03:44:08 71° WNW 03:44:08 71° WNW
BREEZE-M R/B 4.4 03:49:02 41° WNW 03:51:15 65° NNW 04:03:02 10° ENE
USA 307 3.7 03:51:03 38° SSE 03:51:44 41° SE 03:55:39 10° ENE
Helios 1B rocket 2.3 03:50:58 10° NNE 03:55:03 90° NE 03:55:38 65° SSW
Cosmos 1805 Rocket 4.2 03:51:17 10° NNW 03:54:18 39° NW 03:54:18 39° NW
Meteor 1-5 Rocket 4.0 03:50:21 10° NNW 03:55:39 58° W 03:57:32 37° SSW
ARIANE 5 R/B 2.7 03:51:46 10° NNE 03:56:49 70° ESE 04:00:52 16° S
SL-08 R/B 4.1 03:56:31 10° SE 04:00:59 51° ENE 04:05:34 10° N
Cosmos 1633 Rocket 3.6 04:00:45 10° N 04:05:03 57° E 04:09:18 10° SSE
USA 306 3.0 04:05:17 48° SSW 04:06:14 66° SE 04:10:20 10° ENE
Cosmos 1023 Rocket 4.4 04:01:59 10° NNW 04:07:09 68° WSW 04:12:19 10° S
Cosmos 1484 Rocket 3.1 04:05:31 10° NNE 04:09:30 66° ESE 04:12:52 14° S
CZ-3 R/B 4.3 03:53:52 17° SW 04:10:00 32° S 04:18:14 10° ESE
Cosmos 2098 Rocket 2.4 04:11:52 10° N 04:14:44 62° E 04:17:40 10° SSE
Cosmos 1666 Rocket 3.5 04:10:21 10° N 04:14:50 90° W 04:19:18 10° S
Cosmos 1624 Rocket 4.2 04:10:46 12° SSW 04:15:37 75° ESE 04:20:57 10° NNE
ERS-1 4.5 04:10:47 10° NNE 04:15:59 85° WNW 04:21:12 10° SSW
Cosmos 2360 4.4 04:10:21 10° NNW 04:16:05 74° ENE 04:21:46 10° SSE
Cosmos 1153 Rocket 4.4 04:10:26 10° S 04:16:34 90° W 04:22:47 10° N
Meteor 1-4 Rocket 3.7 04:15:51 10° N 04:19:21 46° ENE 04:22:51 10° SSE
Cosmos 1328 Rocket 3.6 04:16:02 10° S 04:20:23 81° E 04:24:48 10° N
CZ-2C R/B 4.1 04:14:58 10° NNE 04:20:40 53° E 04:26:08 10° S
USA 234 3.4 04:16:45 10° NE 04:23:18 74° SE 04:28:44 16° SW
CZ-2C R/B 2.9 04:18:44 10° N 04:23:25 39° WNW 04:25:10 29° WSW
BREEZE-M DEB (TANK) 3.1 04:20:00 21° WNW 04:23:26 68° N 04:26:02 10° E
Cosmos 1833 Rocket 2.6 04:19:47 20° SSW 04:23:48 76° WNW 04:29:29 10° NNE
USA 308 2.8 04:24:31 31° SW 04:26:24 78° SE 04:30:33 10° NE
Cosmos 1515 3.5 04:23:59 19° SSW 04:26:33 73° W 04:30:17 10° N
Cosmos 2251 Rocket 4.1 04:22:21 10° NW 04:27:00 33° W 04:31:38 10° SSW
ERBS 2.5 04:28:10 39° NW 04:28:17 39° NW 04:31:03 10° NE
Cosmos 1371 Rocket 3.9 04:23:47 13° SSW 04:28:29 80° WNW 04:33:47 10° NNE
CZ-2C R/B 2.6 04:26:42 10° N 04:28:50 54° E 04:33:05 10° S
Aureole 3 3.9 04:28:39 32° W 04:29:19 34° W 04:32:40 10° NNW
Envisat 3.1 04:24:25 10° NNE 04:29:32 80° ESE 04:34:36 10° S
IRS-1C 4.3 04:27:16 10° N 04:32:25 50° WNW 04:36:46 14° SW
Cosmos 1536 2.8 04:28:24 10° N 04:32:28 84° E 04:36:31 10° S
COSMOS 2406 3.5 04:27:16 10° SSW 04:32:53 69° ESE 04:38:32 10° NNE
Cosmos 2082 Rocket 3.0 04:28:45 10° S 04:34:11 53° ESE 04:39:38 10° NNE
Cosmos 44 Rocket 4.4 04:33:49 10° S 04:38:16 43° ESE 04:42:44 10° NE
Cosmos 1515 Rocket 4.0 04:34:05 10° S 04:38:26 64° E 04:42:50 10° NNE
Cosmos 1151 Rocket 3.5 04:36:50 23° SW 04:38:52 36° WNW 04:42:51 10° N
YAOGAN 6 2.5 04:36:28 10° N 04:40:05 62° WNW 04:43:39 10° SSW
Sich 1 4.2 04:38:03 10° NW 04:40:54 21° W 04:40:54 21° W
Cosmos 1140 Rocket 4.1 04:39:17 10° NW 04:43:53 33° W 04:48:29 10° SSW
Cosmos 1470 Rocket 3.4 04:41:27 10° N 04:45:48 86° W 04:50:08 10° S
Cosmos 1697 Rocket 2.7 04:42:31 10° NNW 04:48:06 64° WSW 04:53:41 10° S
Cosmos 1356 4.2 04:49:23 23° WSW 04:50:23 27° WNW 04:53:13 10° NNW
Cosmos 1346 Rocket 3.2 04:47:03 10° SSW 04:50:49 42° WNW 04:54:38 10° N
ATLAS CENTAUR R/B 1.8 04:47:58 10° SSW 04:52:47 88° ESE 04:57:41 10° NE
BREEZE M DEB (TANK) 3.9 04:37:33 11° SW 04:53:03 84° SSE 04:57:13 10° ENE
USA 305 3.1 04:53:50 18° WSW 04:56:43 52° NNW 05:00:46 10° NE
Cosmos 1743 2.9 04:54:01 10° NNW 04:57:38 44° W 05:01:15 10° SSW
BREEZE-M DEB (TANK) 3.3 04:56:15 10° NW 04:58:50 29° N 05:00:59 10° ENE
Cosmos 2056 Rocket 3.8 04:54:11 10° SW 04:59:07 46° WNW 05:04:03 10° N
CZ-2C R/B 2.7 04:56:47 10° NNE 05:00:32 89° WNW 05:04:20 10° SSW
Cosmos 1441 Rocket 3.5 04:58:24 10° SSW 05:01:54 41° WNW 05:05:28 10° N
Meteor 1-27 Rocket 3.8 04:56:26 10° SSW 05:02:03 59° WNW 05:07:51 10° N
CZ-2C R/B 3.2 04:58:17 10° SSW 05:02:53 32° W 05:07:35 10° NNW
Cosmos 1190 Rocket 4.4 04:58:55 10° NW 05:03:41 38° WSW 05:08:28 10° S
Cosmos 1802 Rocket 4.1 04:58:14 10° S 05:04:39 85° W 05:11:02 10° N
Cosmos 1954 Rocket 4.1 05:00:12 10° NNW 05:05:19 56° WSW 05:10:26 10° S
Cosmos 1459 Rocket 4.1 05:03:13 10° SSW 05:09:28 63° W 05:15:49 10° N
COSMO-SKYMED 1 2.8 05:06:45 10° SSE 05:11:05 77° ENE 05:15:26 10° N
Cosmos 1420 Rocket 4.4 05:06:24 10° SW 05:11:22 43° WNW 05:16:21 10° N
CENTAUR R/B 3.1 05:06:13 10° SSW 05:11:43 59° ESE 05:18:23 10° NE
Tiangong -0.5 05:10:11 12° WSW 05:12:13 21° SSW 05:14:41 10° SSE
Spot 4 Rocket 4.3 05:08:11 10° N 05:13:08 49° WNW 05:18:03 10° SW
Cosmos 1378 3.0 05:10:47 10° S 05:14:24 87° WNW 05:18:03 10° N
CZ-4C R/B 3.7 05:10:42 10° S 05:14:35 46° W 05:18:41 10° NNW
Meteor 1-29 3.9 05:12:17 10° NNW 05:15:06 26° WNW 05:17:54 10° SW
DELTA 2 R/B (1) 4.2 05:10:59 10° WSW 05:16:24 52° SSE 05:21:49 10° E
X-37B 0.4 05:14:29 12° W 05:17:06 68° N 05:19:59 10° ENE
SJ-12 3.9 05:14:15 10° N 05:18:19 83° WNW 05:22:24 10° SSW
Okean 1 3.3 05:15:11 10° SSW 05:19:11 62° W 05:23:12 10° N
H-2A ROCKET BODY 4.4 05:13:42 10° SW 05:19:54 28° S 05:40:10 10° SE
Cosmos 1725 Rocket 4.1 05:14:05 10° S 05:20:23 84° W 05:26:46 10° N
Lacrosse 4 Rocket 3.9 05:18:42 10° N 05:22:15 24° NE 05:25:49 10° ESE
Cosmos 1741 Rocket 4.4 05:17:09 10° NNW 05:22:23 69° ENE 05:27:34 10° SSE
NOSS 3-2 (A) 3.6 05:17:51 10° SSW 05:23:10 72° ESE 05:29:20 10° NE
Meteor 2-9 Rocket 4.2 05:19:10 10° NNW 05:24:56 70° W 05:30:31 10° S
Cosmos 2369 3.8 05:20:23 10° NNW 05:25:58 59° WSW 05:31:29 10° S
Atlas Centaur 2 3.9 05:19:56 10° WSW 05:26:06 27° S 05:31:23 10° SE
Cosmos 1980 Rocket 2.2 05:21:07 10° NNW 05:26:38 62° WSW 05:32:08 10° S
Cosmos 1869 Rocket 3.9 05:23:11 10° N 05:27:39 76° E 05:32:03 10° SSE
H-2A R/B 4.0 05:22:58 10° NNE 05:27:59 37° E 05:32:58 10° SSE
H-2A R/B 3.5 05:24:55 10° N 05:28:08 30° WNW 05:31:21 10° SW
USA 307 3.6 05:27:15 10° W 05:31:10 39° NNW 05:35:06 10° NE
